Location: Houston
(29.7631°N, 95.3631°W)
Time: 12:06:52
(UTC-05:00)

UNISAT 6 - Pass Details

Date: 27 September 2021
Orbit: 606 x 687 km, 97.7° (Epoch: 27 October)

Event Time Altitude Azimuth Distance (km) Brightness Sun altitude
Rises 20:43:56 0° 2° (N) 3,054 ? -20.8°
Reaches altitude 10° 20:46:17 10° 356° (N) 2,130 ? -21.4°
Maximum altitude 20:50:39 42° 286° (WNW) 970 ? -22.3°
Drops below altitude 10° 20:54:58 10° 216° (SW) 2,087 ? -23.2°
Sets 20:57:15 0° 209° (SSW) 2,984 ? -23.7°
